Flag for Austria Weather past 2 weeks in Lustenau, Vorarlberg, Austria

Now
43 °F

Overcast.


Feels Like: 37 °F
Forecast: 33 / 50 °F
Wind: 10 mph from Southwest

Location: Saint Gallen-Altenrhein

Current Time: Apr 2, 2015 at 6:56:37 AM

Latest Report: Apr 2, 2015 at 6:20 AM


Visibility: N/A

Pressure: 30.09 "Hg

Humidity: 53%

Dew point: 27 °F

Location of LustenauLocation

Historic Weather in Lustenau — Graph

°F

Lustenau temperature yesterday

Maximum temperature yesterday: 48 °F (at 12:20 AM)
Minimum temperature yesterday: 36 °F (at 9:20 AM)
Average temperature yesterday: 41 °F

Past Weeks' High & Low Weather Summary

 TemperatureHumidityPressure
High64 °F (Mar 31, 11:50 AM)100% (Mar 18, 6:20 AM)30.27 "Hg (Mar 18, 6:20 AM)
Low32 °F (Mar 24, 4:50 AM)29% (Mar 25, 1:20 AM)29.56 "Hg (Mar 25, 1:50 PM)
Average46 °F74%29.98 "Hg
* Reported Mar 18 4:20 AM — Apr 2 5:50 AM, Lustenau, Weather by CustomWeather, © 2015

Note: Actual official high and low records may vary slightly from our data, if they occured in-between our weather recording intervals... More about our weather records

Advertising

Lustenau weather history for previous 24 hours

 ConditionsComfort  
Time TempWeatherWind HumidityBarometerVisibility
5:50 AM
Thu, Apr 2
43 °FLight rain. Overcast.12 mph57%30.09 "HgN/A
5:20 AM41 °FDrizzle. Overcast.9 mph66%30.12 "HgN/A
4:50 AM43 °FSprinkles. Overcast.13 mph57%30.12 "HgN/A
4:20 AM41 °FOvercast.8 mph66%30.15 "HgN/A
3:50 AM43 °FOvercast.12 mph61%30.18 "HgN/A
3:20 AM43 °FPassing clouds.9 mph61%30.18 "HgN/A
2:50 AM43 °FPartly cloudy.8 mph57%30.18 "HgN/A
2:20 AM43 °FOvercast.10 mph57%30.21 "HgN/A
1:50 AM43 °FClear.8 mph57%30.21 "HgN/A
1:20 AM43 °FClear.9 mph57%30.24 "HgN/A
12:50 AM43 °FClear.8 mph57%30.24 "HgN/A
12:20 AM43 °FPassing clouds.8 mph57%30.24 "HgN/A
11:50 PM
Wed, Apr 1
43 °FPassing clouds.8 mph57%30.27 "HgN/A
11:20 PM43 °FMostly cloudy.10 mph57%30.27 "HgN/A
10:50 PM43 °FPassing clouds.12 mph57%30.27 "HgN/A
10:20 PM41 °FPassing clouds.10 mph61%30.27 "HgN/A
9:50 PM41 °FPassing clouds.8 mph66%30.27 "HgN/A
9:20 PM41 °FPassing clouds.10 mph66%30.27 "HgN/A
8:50 PM37 °FSprinkles. Partly cloudy.7 mph87%30.27 "HgN/A
8:20 PM41 °FSprinkles. Broken clouds.16 mph70%30.27 "HgN/A
7:50 PM41 °FScattered showers. Broken clouds.14 mph70%30.24 "HgN/A
7:20 PM43 °FScattered showers. Broken clouds.9 mph61%30.21 "HgN/A
6:50 PM43 °FScattered showers. Partly sunny.12 mph61%30.21 "HgN/A
6:20 PM43 °FPartly sunny.13 mph61%30.21 "HgN/A
5:50 PM41 °FPartly sunny.9 mph70%30.21 "HgN/A
5:20 PM39 °FScattered showers. Broken clouds.13 mph81%30.21 "HgN/A
4:50 PM37 °FSprinkles. Broken clouds.17 mph87%30.21 "HgN/A
4:20 PM45 °FScattered showers. Broken clouds.12 mph66%30.18 "HgN/A
3:50 PM43 °FScattered showers. Broken clouds.12 mph71%30.18 "HgN/A
3:20 PM41 °FBroken clouds.2 mph76%30.18 "HgN/A
2:50 PM41 °FBroken clouds.7 mph76%30.18 "HgN/A
2:20 PM37 °FSprinkles. Broken clouds.9 mph93%30.21 "HgN/A
1:50 PM36 °FRain showers. Broken clouds.16 mph93%30.21 "Hg2 mi
1:20 PM37 °FSprinkles. Broken clouds.7 mph93%30.18 "HgN/A
12:50 PM39 °FSprinkles. Broken clouds.6 mph87%30.18 "HgN/A
12:20 PM36 °FSprinkles. Broken clouds.8 mph93%30.18 "HgN/A
11:50 AM39 °FSprinkles. Broken clouds.5 mph81%30.18 "HgN/A
11:20 AM39 °FBroken clouds.8 mph81%30.18 "HgN/A
10:50 AM37 °FBroken clouds.10 mph87%30.18 "HgN/A
10:20 AM36 °FLight snow. Broken clouds.15 mph93%30.18 "HgN/A
9:50 AM36 °FSprinkles. Broken clouds.13 mph100%30.15 "Hg5 mi
9:20 AM36 °FSprinkles. Broken clouds.15 mph93%30.15 "Hg2 mi
8:50 AM39 °FPartly sunny.24 mph81%30.12 "HgN/A
8:20 AM37 °FDrizzle. Partly sunny.15 mph87%30.12 "HgN/A
7:50 AM41 °FLight rain. Passing clouds.17 mph76%30.09 "HgN/A
7:20 AM41 °FScattered showers. Passing clouds.15 mph66%30.07 "HgN/A
6:50 AM41 °FPassing clouds.13 mph70%30.07 "HgN/A
6:20 AM41 °FPassing clouds.15 mph70%30.07 "HgN/A
Weather by CustomWeather, © 2015

See weather overviewHow to use our weather pages